(2010 GV23) |
Classification: Aten [NEO] SPK-ID: 3515451 |
[ hide orbit diagram ]
For accurate long-term ephemerides, please instead use our Horizons system.This orbit viewer was implemented using two-body methods, and hence should not be used for determining accurate long-term trajectories (over several years or decades) or planetary encounter circumstances.
Orbital Elements at Epoch 2459200.5 (2020-Dec-17.0) TDB
Reference: JPL 12 (heliocentric ecliptic J2000)
Element | Value | Uncertainty (1-sigma) | Units |
e | .2031740735758744 | 0.00015976 | |
a | .9297129095194222 | 2.3147e-05 | au |
q | .7408193504362829 | 0.00016695 | au |
i | 3.62261959938438 | 0.0034649 | deg |
node | 198.4815426915576 | 0.0023832 | deg |
peri | 233.8476556538595 | 0.0010899 | deg |
M | 80.28126442245731 | 0.20787 | deg |
tp | 2459127.481413403678 (2020-Oct-04.98141340) | 0.18634 | TDB |
period | 327.4324509433438 0.90 | 0.012228 3.348e-05 | d yr |
n | 1.099463412874405 | 4.106e-05 | deg/d |
Q | 1.118606468602562 | 2.785e-05 | au |
|
| | Orbit Determination Parameters
Additional Information
|
[ show covariance matrix ]
Physical Parameter Table
Parameter |
Symbol |
Value |
Units |
Sigma |
Reference |
Notes |
absolute magnitude |
H |
27.6 |
|
n/a |
MPO175146 |
|
|
[ show close-approach data ]
|